Location: Bemmer
(51.5498°N, 5.6249°E)
Time: 17:48:13
(UTC+00:00)

Cosmos 1703 Rocket - Pass Details

Date: 03 March 2021
Orbit: 604 x 634 km, 82.5° (Epoch: 12 April)

Event Time Altitude Azimuth Distance (km) Brightness Sun altitude
Rises 18:46:14 0° 350° (N) 2,918 7.2 -13.9°
Reaches altitude 10° 18:48:29 10° 352° (N) 2,002 6.4 -14.3°
Maximum altitude 18:52:55 74° 78° (ENE) 646 3.4 -15.0°
Drops below altitude 10° 18:57:16 10° 164° (SSE) 1,967 5.9 -15.6°
Sets 18:59:29 0° 166° (SSE) 2,862 6.7 -16.0°
Enters shadow 18:59:32 - 166° (SSE) 2,885 6.8 -16.0°
